Date,TemperatureHighF,TemperatureAvgF,TemperatureLowF,DewpointHighF,DewpointAvgF,DewpointLowF,HumidityHigh,HumidityAvg,HumidityLow,PressureMaxIn,PressureMinIn,WindSpeedMaxMPH,WindSpeedAvgMPH,GustSpeedMaxMPH,PrecipitationSumIn
2013-1-1,48.0,44.8,42.0,46.0,37.0,27.0,99,77,47,0.00,40.00,2,0,27,0.28
2013-1-2,45.0,41.4,37.0,45.0,38.9,35.0,99,92,73,0.00,40.00,2,1,35,0.48
2013-1-3,42.0,36.3,29.0,36.0,33.4,29.0,98,90,71,0.00,40.00,2,0,24,0.01
2013-1-4,48.0,36.7,26.0,29.0,24.1,18.0,98,64,34,0.00,40.00,6,2,17,0.00
2013-1-5,53.0,38.6,27.0,28.0,22.6,19.0,78,55,28,0.00,40.00,3,1,9,0.00
2013-1-6,54.0,42.2,37.0,36.0,33.2,27.0,94,71,48,0.00,40.00,2,0,27,0.00
2013-1-7,55.0,41.3,32.0,32.0,29.7,28.0,89,65,38,0.00,40.00,3,1,46,0.00
2013-1-8,55.0,40.1,29.0,38.0,32.6,28.0,98,76,47,0.00,40.00,3,0,46,0.00
2013-1-9,72.0,50.8,35.0,50.0,42.4,34.0,98,77,44,0.00,40.00,3,1,15,0.00
2013-1-10,64.0,52.0,42.0,49.0,39.1,29.0,96,66,31,0.00,40.00,3,1,50,0.00
2013-1-11,52.0,46.6,39.0,52.0,43.2,30.0,99,89,66,0.00,40.00,3,1,26,0.13
2013-1-12,72.0,57.3,50.0,61.0,56.0,50.0,99,95,68,0.00,40.00,1,0,16,0.01
2013-1-13,77.0,62.0,55.0,65.0,58.5,55.0,99,90,58,0.00,40.00,3,1,35,0.01
2013-1-14,68.0,60.2,51.0,64.0,59.1,51.0,99,96,76,0.00,40.00,4,0,23,0.50
2013-1-15,51.0,43.4,42.0,51.0,42.8,41.0,99,98,98,0.00,40.00,4,2,15,0.39
2013-1-16,48.0,44.6,41.0,48.0,44.3,40.0,99,99,98,0.00,40.00,5,1,19,0.20
2013-1-17,50.0,44.2,32.0,50.0,43.9,32.0,99,99,97,0.00,40.00,4,2,17,1.02
2013-1-18,49.0,36.6,29.0,34.0,30.2,25.0,98,80,44,0.00,40.00,4,1,15,0.76
2013-1-19,58.0,38.3,25.0,30.0,26.4,23.0,98,66,33,0.00,40.00,2,0,15,0.11
2013-1-20,64.0,46.4,34.0,33.0,29.5,26.0,87,55,29,0.00,40.00,5,2,16,0.01
2013-1-21,61.0,44.9,32.0,29.0,24.9,11.0,80,49,25,0.00,40.00,5,2,29,0.00
2013-1-22,41.0,31.6,21.0,12.0,2.2,-8.0,41,29,16,0.00,40.00,6,3,27,0.00
2013-1-23,41.0,28.0,16.0,14.0,5.6,-2.0,68,41,19,0.00,40.00,6,1,16,0.00
2013-1-24,36.0,29.0,19.0,21.0,11.1,2.0,64,48,27,0.00,40.00,9,2,52,0.00
2013-1-25,26.0,22.1,15.0,25.0,13.2,4.0,97,71,38,0.00,40.00,2,0,90,0.00
2013-1-26,34.0,27.4,20.0,29.0,25.7,20.0,98,93,76,0.00,40.00,1,0,6,0.06
2013-1-27,43.0,31.0,20.0,28.0,23.6,19.0,98,76,45,0.00,40.00,2,1,9,0.16
2013-1-28,54.0,41.1,28.0,46.0,34.0,24.0,96,77,53,0.00,40.00,2,1,20,0.05
2013-1-29,77.0,58.4,46.0,54.0,49.8,45.0,98,77,40,0.00,40.00,2,1,13,0.01
2013-1-30,72.0,66.1,57.0,62.0,59.4,54.0,99,80,66,0.00,40.00,7,3,44,0.00
2013-1-31,66.0,44.9,30.0,62.0,22.7,16.0,88,43,27,0.00,40.00,8,4,25,0.34
2013-2-1,38.0,32.2,23.0,27.0,11.5,2.0,69,44,22,0.00,40.00,10,4,27,0.01
2013-2-2,43.0,30.6,17.0,31.0,8.9,5.0,79,43,22,0.00,40.00,3,1,15,0.00
2013-2-3,51.0,38.6,32.0,33.0,27.6,18.0,98,68,33,0.00,40.00,6,2,18,0.00
2013-2-4,51.0,37.2,27.0,25.0,19.0,15.0,71,50,29,0.00,40.00,3,1,25,0.00
2013-2-5,63.0,44.9,36.0,33.0,28.8,24.0,75,55,32,0.00,40.00,3,1,9,0.00
2013-2-6,61.0,46.3,33.0,33.0,28.8,23.0,86,55,26,0.00,40.00,6,2,118,0.00
2013-2-7,48.0,40.1,32.0,41.0,33.7,27.0,98,80,57,0.00,40.00,4,2,21,0.74
2013-2-8,52.0,43.4,39.0,43.0,38.2,26.0,98,84,50,0.00,40.00,7,4,29,1.53
2013-2-9,52.0,39.8,29.0,26.0,19.3,14.0,79,47,23,0.00,40.00,5,3,19,0.02
2013-2-10,54.0,39.8,26.0,31.0,19.1,15.0,69,45,25,0.00,40.00,4,1,103,0.00
2013-2-11,62.0,52.9,42.0,61.0,51.5,31.0,99,95,66,0.00,40.00,4,2,14,0.07
2013-2-12,61.0,52.2,42.0,55.0,32.5,24.0,97,50,24,0.00,40.00,6,2,34,0.01
2013-2-13,48.0,45.6,42.0,47.0,42.6,32.0,99,91,53,0.00,40.00,7,1,27,0.18
2013-2-14,54.0,41.8,32.0,38.0,33.7,32.0,98,76,46,0.00,40.00,3,1,15,0.01
2013-2-15,66.0,45.5,32.0,37.0,31.7,27.0,98,66,25,0.00,40.00,3,1,23,0.00
2013-2-16,46.0,36.6,32.0,36.0,33.4,30.0,98,89,60,0.00,40.00,4,1,38,0.13
2013-2-17,35.0,29.8,25.0,30.0,14.0,4.0,94,55,29,0.00,40.00,9,3,61,0.01
2013-2-18,56.0,34.0,17.0,21.0,13.3,6.0,75,46,20,0.00,40.00,3,1,16,0.01
2013-2-19,54.0,42.2,31.0,51.0,36.1,21.0,98,80,60,0.00,40.00,4,1,14,0.01
2013-2-20,53.0,40.8,29.0,36.0,15.8,8.0,87,40,17,0.00,40.00,6,3,19,0.00
2013-2-21,53.0,38.8,25.0,21.0,16.4,12.0,67,42,23,0.00,40.00,5,2,15,0.00
2013-2-22,42.0,37.3,32.0,35.0,25.4,16.0,98,65,41,0.00,40.00,3,1,107,0.10
2013-2-23,43.0,39.2,35.0,42.0,38.2,34.0,98,98,96,0.00,40.00,4,2,11,0.54
2013-2-24,65.0,48.2,39.0,47.0,34.7,22.0,98,67,29,0.00,40.00,5,2,15,0.03
2013-2-25,44.0,36.2,30.0,27.0,21.8,20.0,78,56,38,0.00,40.00,3,1,15,0.02
2013-2-26,56.0,42.8,31.0,56.0,39.8,25.0,99,89,71,0.00,40.00,7,2,18,0.73
2013-2-27,63.0,49.4,39.0,51.0,39.0,33.0,99,72,35,0.00,40.00,6,2,153,0.01
2013-2-28,50.0,42.6,34.0,38.0,28.9,23.0,98,62,37,0.00,40.00,6,2,65,0.00
2013-3-1,48.0,39.0,29.0,30.0,27.0,25.0,89,64,41,0.00,40.00,5,2,65,0.00
2013-3-2,45.0,38.6,28.0,29.0,24.3,18.0,80,57,43,0.00,40.00,4,1,15,0.00
2013-3-3,50.0,37.6,28.0,22.0,18.9,15.0,71,48,32,0.00,40.00,5,3,32,0.00
2013-3-4,51.0,36.4,25.0,17.0,12.7,10.0,60,40,19,0.00,40.00,8,3,109,0.00
2013-3-5,52.0,40.9,31.0,43.0,28.0,14.0,98,65,27,0.00,40.00,6,2,14,0.58
2013-3-6,40.0,37.2,34.0,39.0,34.3,29.0,98,90,65,0.00,40.00,12,7,29,0.44
2013-3-7,49.0,41.6,32.0,32.0,27.4,23.0,77,58,45,0.00,40.00,6,4,20,0.03
2013-3-8,55.0,40.8,26.0,27.0,24.6,21.0,97,57,30,0.00,40.00,8,4,25,0.00
2013-3-9,64.0,47.4,33.0,28.0,24.5,21.0,77,45,19,0.00,40.00,4,2,12,0.00
2013-3-10,68.0,52.2,36.0,32.0,21.3,15.0,63,34,13,0.00,40.00,5,2,20,0.00
2013-3-11,71.0,54.9,40.0,49.0,43.2,32.0,98,68,41,0.00,40.00,8,3,16,0.00
2013-3-12,69.0,60.1,49.0,64.0,51.6,31.0,99,76,46,0.00,40.00,6,4,18,1.02
2013-3-13,57.0,46.3,32.0,33.0,25.7,16.0,82,47,25,0.00,40.00,7,4,26,0.64
2013-3-14,52.0,39.7,27.0,20.0,16.5,14.0,69,41,23,0.00,40.00,7,3,21,0.00
2013-3-15,63.0,45.6,28.0,31.0,22.2,13.0,64,42,23,0.00,40.00,4,1,107,0.00
2013-3-16,78.0,58.8,42.0,58.0,41.7,31.0,99,58,30,0.00,40.00,6,1,25,0.02
2013-3-17,54.0,45.9,37.0,54.0,42.1,35.0,99,87,71,0.00,40.00,4,2,13,0.03
2013-3-18,42.0,38.7,35.0,42.0,37.9,34.0,99,98,98,0.00,40.00,3,2,12,0.13
2013-3-19,70.0,50.2,38.0,45.0,31.4,7.0,99,62,15,0.00,40.00,6,3,20,0.10
2013-3-20,59.0,47.0,37.0,20.0,10.7,5.0,49,24,15,0.00,40.00,5,2,21,0.01
2013-3-21,45.0,37.3,29.0,32.0,18.7,7.0,86,50,23,0.00,40.00,8,3,26,0.00
2013-3-22,54.0,36.9,21.0,14.0,11.0,5.0,73,38,15,0.00,40.00,5,2,17,0.00
2013-3-23,59.0,43.7,33.0,28.0,21.4,12.0,71,43,22,0.00,40.00,4,1,13,0.00
2013-3-24,40.0,36.7,33.0,38.0,32.7,27.0,98,87,62,0.00,40.00,6,2,18,0.74
2013-3-25,48.0,38.4,33.0,36.0,30.1,22.0,98,76,42,0.00,40.00,8,3,57,0.05
2013-3-26,49.0,39.5,30.0,32.0,26.6,23.0,84,62,41,0.00,40.00,6,2,16,0.02
2013-3-27,52.0,41.3,31.0,27.0,23.3,18.0,78,52,28,0.00,40.00,8,4,133,0.00
2013-3-28,56.0,51.0,39.0,23.0,21.5,17.0,50,32,24,0.00,40.00,7,4,33,0.00
2013-3-29,63.0,47.6,32.0,27.0,24.4,22.0,72,44,22,0.00,40.00,5,2,38,0.00
2013-3-30,69.0,52.8,37.0,33.0,27.8,24.0,70,42,20,0.00,40.00,6,2,175,0.00
2013-3-31,68.0,54.7,46.0,58.0,48.1,33.0,99,80,50,0.00,40.00,5,2,15,0.45
2013-4-1,74.0,59.6,51.0,56.0,45.4,30.0,99,67,27,0.00,40.00,7,3,23,0.12
2013-4-2,60.0,48.3,34.0,30.0,22.8,18.0,73,39,20,0.00,40.00,7,2,22,0.01
2013-4-3,61.0,47.2,33.0,24.0,18.5,12.0,63,35,17,0.00,40.00,7,2,18,0.00
2013-4-4,52.0,42.5,34.0,40.0,28.4,16.0,98,62,31,0.00,40.00,5,3,16,0.56
2013-4-5,66.0,49.2,38.0,45.0,41.1,37.0,99,78,39,0.00,40.00,6,2,147,0.55
2013-4-6,66.0,51.1,41.0,43.0,29.0,23.0,94,47,20,0.00,40.00,5,2,71,0.01
2013-4-7,73.0,54.7,32.0,42.0,35.5,27.0,97,53,27,0.00,40.00,8,3,20,0.00
2013-4-8,81.0,66.9,52.0,55.0,50.1,42.0,98,59,33,0.00,40.00,8,4,19,0.00
2013-4-9,88.0,67.3,57.0,59.0,39.8,-99.9,98,56,29,0.00,40.00,7,4,14,0.00
2013-4-10,91.0,75.4,62.0,59.0,55.6,53.0,86,55,29,0.00,40.00,8,4,17,0.00
2013-4-11,83.0,73.2,62.0,65.0,57.9,54.0,91,61,40,0.00,40.00,9,5,19,0.00
2013-4-12,84.0,73.4,65.0,68.0,62.7,41.0,99,71,38,0.00,40.00,8,5,24,0.71
2013-4-13,76.0,65.3,53.0,43.0,30.4,-99.9,52,36,25,0.00,40.00,6,3,22,0.50
2013-4-14,83.0,66.1,46.0,48.0,41.1,34.0,98,48,19,0.00,40.00,4,1,38,0.00
2013-4-15,70.0,61.1,55.0,58.0,52.9,-99.9,99,79,49,0.00,40.00,4,3,15,0.06
2013-4-16,78.0,62.8,56.0,61.0,51.2,-99.9,99,76,45,0.00,40.00,3,1,15,0.04
2013-4-17,86.0,65.4,57.0,64.0,37.0,-99.9,99,59,42,0.00,40.00,5,2,15,0.00
2013-4-18,80.0,70.8,59.0,63.0,51.1,-99.9,98,62,45,0.00,40.00,5,2,15,0.00
2013-4-19,83.0,70.9,62.0,67.0,64.5,59.0,99,82,55,0.00,40.00,12,6,32,0.44
2013-4-20,65.0,55.0,46.0,65.0,33.6,-99.9,99,54,27,0.00,40.00,12,3,24,0.60
2013-4-21,59.0,48.9,41.0,42.0,35.9,31.0,98,64,39,0.00,40.00,5,2,16,0.00
2013-4-22,61.0,48.4,35.0,44.0,38.6,34.0,98,71,45,0.00,40.00,4,2,54,0.00
2013-4-23,69.0,54.6,47.0,48.0,44.6,41.0,86,71,47,0.00,40.00,4,2,15,0.00
2013-4-24,78.0,58.6,46.0,55.0,44.8,-99.9,99,70,41,0.00,40.00,8,4,20,0.00
2013-4-25,62.0,58.6,54.0,57.0,46.9,39.0,85,66,56,0.00,40.00,4,3,16,0.00
2013-10-25,62.0,51.5,35.0,44.0,32.4,27.0,89,51,26,0.00,40.00,8,4,18,0.00
2013-10-26,67.0,46.1,31.0,35.0,30.1,24.0,94,61,22,0.00,40.00,5,2,13,0.00
2013-10-27,74.0,53.3,38.0,49.0,39.4,33.0,90,64,30,0.00,40.00,4,1,10,0.00
2013-10-28,75.0,57.5,46.0,57.0,49.3,-99.9,98,79,52,0.00,40.00,3,1,7,0.00
2013-10-29,81.0,59.6,47.0,56.0,51.2,46.0,99,79,33,0.00,40.00,3,1,9,0.00
2013-10-30,82.0,64.1,51.0,60.0,53.9,51.0,99,75,35,0.00,40.00,5,1,14,0.00
2013-10-31,68.0,55.8,52.0,59.0,54.0,51.0,98,95,74,0.00,40.00,0,0,3,0.00
2013-11-18,81.0,71.6,59.0,68.0,58.1,31.0,94,66,34,0.00,40.00,10,6,19,0.00
2013-11-19,60.0,52.3,45.0,31.0,28.2,25.0,56,41,26,0.00,40.00,9,5,19,0.00
2013-11-20,57.0,47.5,39.0,39.0,33.7,29.0,73,59,46,0.00,40.00,11,6,20,0.00
2013-11-21,70.0,55.7,45.0,55.0,46.6,39.0,90,72,54,0.00,40.00,8,4,16,0.00
2013-11-22,73.0,63.3,55.0,63.0,58.2,52.0,95,84,64,0.00,40.00,8,4,18,0.00
2013-11-23,64.0,59.7,49.0,63.0,50.7,-99.9,98,76,37,0.00,40.00,12,5,19,0.07
2013-11-24,49.0,37.7,25.0,24.0,10.9,2.0,61,35,18,0.00,40.00,15,8,28,0.05
2013-11-25,46.0,32.5,20.0,20.0,9.8,2.0,74,43,16,0.00,40.00,5,2,14,0.00
2013-11-26,68.0,51.9,35.0,67.0,45.9,15.0,97,81,43,0.00,40.00,14,6,24,0.98
2013-11-27,68.0,49.0,32.0,67.0,45.1,19.0,97,87,57,0.00,40.00,18,8,26,1.39
2013-11-28,47.0,34.1,25.0,28.0,20.3,16.0,92,60,33,0.00,40.00,9,3,17,0.01
2013-11-29,55.0,39.1,25.0,31.0,25.5,22.0,94,64,28,0.00,40.00,8,3,14,0.01
2013-11-30,53.0,41.9,32.0,38.0,29.8,-99.9,78,64,50,0.00,40.00,10,5,16,0.01
2013-12-1,58.0,47.1,38.0,46.0,40.1,34.0,96,78,56,0.00,40.00,4,2,9,0.00
2013-12-2,62.0,47.8,40.0,47.0,43.0,39.0,97,86,52,0.00,40.00,5,1,9,0.00
2013-12-3,61.0,50.5,38.0,50.0,44.0,37.0,97,80,54,0.00,40.00,7,2,12,0.00
2013-12-4,63.0,57.6,53.0,60.0,55.9,49.0,99,94,87,0.00,40.00,6,2,9,0.61
2013-12-5,75.0,63.4,52.0,64.0,59.5,52.0,99,88,68,0.00,40.00,8,4,14,0.01
2013-12-6,81.0,71.8,66.0,65.0,63.3,62.0,89,76,53,0.00,40.00,15,9,24,0.00
2013-12-7,69.0,54.2,44.0,65.0,49.9,-99.9,95,87,77,0.00,40.00,11,8,25,0.26
2013-12-8,45.0,39.4,37.0,38.0,36.7,35.0,97,91,77,0.00,40.00,9,6,18,0.20
2013-12-9,54.0,45.9,37.0,54.0,45.1,36.0,99,98,97,0.00,40.00,6,2,9,0.01
2013-12-10,68.0,53.0,38.0,65.0,50.7,33.0,99,92,74,0.00,40.00,15,6,29,0.23
2013-12-11,54.0,40.4,28.0,34.0,26.4,19.0,93,62,29,0.00,40.00,5,2,12,0.04
2013-12-12,50.0,37.3,28.0,32.0,24.4,16.0,96,66,27,0.00,40.00,10,3,18,0.00
2013-12-13,55.0,39.1,24.0,32.0,24.1,19.0,94,62,24,0.00,40.00,7,2,13,0.00
2013-12-14,66.0,50.9,40.0,62.0,43.9,-99.9,99,80,57,0.00,40.00,19,5,30,1.32
2013-12-15,57.0,49.7,36.0,57.0,45.6,35.0,99,87,59,0.00,40.00,10,5,17,1.05
2013-12-16,58.0,41.4,30.0,39.0,33.2,29.0,97,76,38,0.00,40.00,8,2,12,0.02
2013-12-17,66.0,51.1,38.0,37.0,34.6,31.0,83,57,30,0.00,40.00,15,7,23,0.00
2013-12-18,54.0,42.8,30.0,35.0,26.5,18.0,88,57,25,0.00,40.00,8,3,17,0.00
2013-12-19,62.0,43.1,29.0,37.0,28.6,22.0,91,64,21,0.00,40.00,9,3,15,0.00
2013-12-20,70.0,53.4,39.0,54.0,46.5,37.0,96,80,50,0.00,40.00,10,2,17,0.00
2013-12-21,76.0,63.1,50.0,65.0,57.0,-99.9,98,84,66,0.00,40.00,10,5,17,0.00
2013-12-22,82.0,72.3,67.0,68.0,65.0,62.0,94,79,54,0.00,40.00,18,8,30,0.00
2013-12-23,77.0,68.5,52.0,69.0,64.6,50.0,96,88,68,0.00,40.00,14,9,27,0.52
2013-12-24,52.0,46.2,35.0,50.0,35.8,19.0,93,68,45,0.00,40.00,10,6,19,0.16
2013-12-25,44.0,34.8,27.0,23.0,17.1,12.0,63,49,32,0.00,40.00,6,4,14,0.00
2013-12-26,45.0,38.6,33.0,37.0,31.2,23.0,95,76,58,0.00,40.00,7,3,12,0.02
2013-12-27,53.0,39.6,30.0,32.0,28.2,24.0,95,68,35,0.00,40.00,6,2,11,0.02
2013-12-28,59.0,42.8,26.0,36.0,27.6,-99.9,95,63,27,0.00,40.00,4,1,7,0.00
2013-12-29,69.0,57.4,44.0,67.0,53.5,36.0,99,87,52,0.00,40.00,17,7,28,1.29
2013-12-30,56.0,47.2,40.0,48.0,42.6,39.0,99,86,53,0.00,40.00,4,1,9,0.03
2013-12-31,54.0,46.2,35.0,45.0,36.9,29.0,94,73,39,0.00,40.00,9,3,16,0.00
2014-1-1,52.0,41.6,32.0,42.0,33.4,26.0,96,76,38,0.00,40.00,5,1,10,0.01
2014-1-2,51.0,46.9,44.0,50.0,45.7,41.0,98,96,87,0.00,40.00,12,3,20,0.61